SKW4711 KORD-KMKE

Flight info

Callsign SKW4711
Flight time 0h 33m
Altitude 7000
Route RAYNR BRTMN TAAYZ
Aircraft E75L/M-VGDW/C

Departure

Time 2026-04-26 21:21
Airport Chicago O'Hare International Airport (KORD)

Arrival

Time 2026-04-26 21:55
Airport General Mitchell International Airport (KMKE)
Time Latitude Longitude Altitude Speed Heading
2026-04-26 21:02 41.97522 -87.90788 663 ft 0 kts 175°
2026-04-26 21:09 41.97535 -87.90790 663 ft 2 kts 173°
2026-04-26 21:10 41.97550 -87.90791 663 ft 2 kts 175°
2026-04-26 21:10 41.97566 -87.90794 663 ft 2 kts 180°
2026-04-26 21:10 41.97580 -87.90788 663 ft 2 kts 207°
2026-04-26 21:10 41.97591 -87.90777 663 ft 2 kts 230°
2026-04-26 21:11 41.97597 -87.90762 663 ft 1 kts 250°
2026-04-26 21:11 41.97600 -87.90752 663 ft 0 kts 257°
2026-04-26 21:11 41.97599 -87.90756 663 ft 0 kts 250°
2026-04-26 21:13 41.97596 -87.90770 663 ft 2 kts 254°
2026-04-26 21:13 41.97586 -87.90808 663 ft 5 kts 250°
2026-04-26 21:13 41.97569 -87.90868 663 ft 5 kts 256°
2026-04-26 21:13 41.97603 -87.90884 663 ft 7 kts
2026-04-26 21:14 41.97670 -87.90869 663 ft 11 kts
2026-04-26 21:14 41.97777 -87.90845 663 ft 19 kts
2026-04-26 21:14 41.97932 -87.90813 663 ft 24 kts
2026-04-26 21:14 41.98097 -87.90782 663 ft 23 kts 358°
2026-04-26 21:15 41.98264 -87.90808 660 ft 21 kts 326°
2026-04-26 21:15 41.98287 -87.90954 660 ft 15 kts 273°
2026-04-26 21:15 41.98289 -87.91099 660 ft 16 kts 269°
2026-04-26 21:15 41.98288 -87.91251 662 ft 16 kts 271°
2026-04-26 21:16 41.98289 -87.91403 663 ft 16 kts 268°
2026-04-26 21:16 41.98288 -87.91564 664 ft 17 kts 270°
2026-04-26 21:16 41.98289 -87.91724 666 ft 17 kts 271°
2026-04-26 21:16 41.98288 -87.91892 666 ft 18 kts 269°
2026-04-26 21:17 41.98280 -87.92068 666 ft 19 kts 265°
2026-04-26 21:17 41.98280 -87.92257 666 ft 20 kts 269°
2026-04-26 21:17 41.98280 -87.92451 666 ft 21 kts 270°
2026-04-26 21:17 41.98287 -87.92619 667 ft 9 kts 301°
2026-04-26 21:18 41.98288 -87.92622 667 ft 0 kts 305°
2026-04-26 21:18 41.98299 -87.92637 667 ft 4 kts 323°
2026-04-26 21:18 41.98346 -87.92649 666 ft 8 kts
2026-04-26 21:18 41.98388 -87.92582 666 ft 11 kts 86°
2026-04-26 21:19 41.98389 -87.92540 666 ft 0 kts 88°
2026-04-26 21:20 41.98389 -87.92537 666 ft 3 kts 88°
2026-04-26 21:21 41.98391 -87.92148 667 ft 82 kts 90°
2026-04-26 21:21 41.98389 -87.91030 676 ft 148 kts 91°
2026-04-26 21:21 41.98335 -87.89607 1391 ft 152 kts 95°
2026-04-26 21:21 41.98572 -87.88331 1901 ft 163 kts 57°
2026-04-26 21:22 41.99597 -87.87418 2381 ft 197 kts 16°
2026-04-26 21:22 42.01068 -87.87447 2868 ft 222 kts 356°
2026-04-26 21:22 42.02619 -87.87671 3167 ft 232 kts 356°
2026-04-26 21:23 42.05740 -87.87067 3969 ft 230 kts 15°
2026-04-26 21:23 42.07367 -87.86776 4398 ft 240 kts
2026-04-26 21:23 42.09097 -87.86507 4842 ft 257 kts
2026-04-26 21:23 42.10881 -87.86210 5253 ft 261 kts
2026-04-26 21:24 42.12670 -87.85899 5647 ft 263 kts
2026-04-26 21:24 42.14505 -87.85575 6049 ft 265 kts
2026-04-26 21:24 42.16342 -87.85248 6348 ft 269 kts
2026-04-26 21:24 42.18242 -87.84907 6575 ft 278 kts
2026-04-26 21:25 42.20178 -87.84559 6741 ft 281 kts
2026-04-26 21:25 42.22120 -87.84209 6861 ft 282 kts
2026-04-26 21:25 42.24080 -87.83856 6958 ft 282 kts
2026-04-26 21:25 42.26038 -87.83503 7025 ft 283 kts
2026-04-26 21:26 42.27968 -87.83155 7030 ft 282 kts
2026-04-26 21:26 42.29928 -87.82801 7038 ft 282 kts
2026-04-26 21:26 42.31876 -87.82491 7037 ft 282 kts
2026-04-26 21:26 42.33820 -87.82245 7040 ft 281 kts
2026-04-26 21:27 42.35783 -87.81995 7039 ft 283 kts
2026-04-26 21:27 42.37756 -87.81745 7038 ft 282 kts
2026-04-26 21:27 42.39692 -87.81499 7042 ft 281 kts
2026-04-26 21:27 42.41665 -87.81248 7040 ft 281 kts
2026-04-26 21:28 42.43613 -87.81001 7042 ft 281 kts
2026-04-26 21:28 42.45565 -87.80752 7039 ft 281 kts
2026-04-26 21:28 42.47523 -87.80550 6957 ft 281 kts 359°
2026-04-26 21:28 42.49474 -87.80653 6956 ft 280 kts 357°
2026-04-26 21:29 42.51423 -87.80778 6953 ft 281 kts 357°
2026-04-26 21:29 42.53366 -87.80901 6955 ft 282 kts 357°
2026-04-26 21:29 42.55329 -87.81027 6955 ft 280 kts 357°
2026-04-26 21:29 42.57270 -87.81372 6945 ft 277 kts 336°
2026-04-26 21:30 42.58715 -87.82855 6884 ft 259 kts 303°
2026-04-26 21:30 42.59650 -87.84933 6492 ft 257 kts 296°
2026-04-26 21:30 42.60515 -87.87036 6092 ft 256 kts 296°
2026-04-26 21:30 42.61369 -87.89136 5688 ft 256 kts 296°
2026-04-26 21:31 42.62226 -87.91257 5283 ft 256 kts 296°
2026-04-26 21:31 42.63071 -87.93363 4882 ft 255 kts 296°
2026-04-26 21:31 42.63917 -87.95496 4474 ft 255 kts 296°
2026-04-26 21:31 42.64748 -87.97601 4071 ft 255 kts 296°
2026-04-26 21:32 42.65570 -87.99706 3782 ft 250 kts 296°
2026-04-26 21:32 42.66372 -88.01764 3555 ft 242 kts 296°
2026-04-26 21:32 42.67147 -88.03758 3372 ft 235 kts 296°
2026-04-26 21:32 42.67900 -88.05709 3266 ft 234 kts 297°
2026-04-26 21:33 42.68656 -88.07664 3177 ft 234 kts 296°
2026-04-26 21:33 42.69411 -88.09628 3104 ft 236 kts 296°
2026-04-26 21:33 42.70176 -88.11615 3033 ft 235 kts 296°
2026-04-26 21:33 42.70930 -88.13574 2962 ft 236 kts 297°
2026-04-26 21:34 42.71692 -88.15561 2948 ft 235 kts 296°
2026-04-26 21:34 42.72445 -88.17535 2950 ft 235 kts 296°
2026-04-26 21:34 42.73195 -88.19497 2947 ft 235 kts 298°
2026-04-26 21:34 42.74328 -88.21052 2971 ft 235 kts 338°
2026-04-26 21:35 42.75886 -88.21784 2969 ft 235 kts 346°
2026-04-26 21:35 42.77449 -88.22418 2959 ft 235 kts 346°
2026-04-26 21:35 42.79017 -88.23050 2957 ft 234 kts 346°
2026-04-26 21:35 42.80575 -88.23679 2953 ft 233 kts 346°
2026-04-26 21:36 42.82148 -88.24287 2952 ft 232 kts 355°
2026-04-26 21:36 42.83676 -88.23920 2990 ft 223 kts 32°
2026-04-26 21:36 42.84999 -88.22835 2960 ft 222 kts 37°
2026-04-26 21:36 42.86243 -88.21622 2941 ft 218 kts 56°
2026-04-26 21:37 42.86974 -88.19848 2971 ft 213 kts 69°
2026-04-26 21:37 42.87585 -88.17991 2917 ft 213 kts 70°
2026-04-26 21:37 42.88178 -88.16171 2831 ft 212 kts 70°
2026-04-26 21:37 42.88781 -88.14320 2753 ft 211 kts 70°
2026-04-26 21:38 42.89214 -88.12444 2735 ft 207 kts 81°
2026-04-26 21:38 42.89500 -88.10502 2879 ft 208 kts 81°
2026-04-26 21:38 42.89841 -88.08569 2780 ft 212 kts 77°
2026-04-26 21:38 42.90290 -88.06650 2631 ft 210 kts 73°
2026-04-26 21:39 42.90762 -88.04797 2618 ft 208 kts 75°
2026-04-26 21:39 42.91229 -88.02919 2498 ft 211 kts 75°
2026-04-26 21:39 42.91703 -88.01006 2206 ft 210 kts 74°
2026-04-26 21:39 42.92165 -87.99154 2077 ft 206 kts 75°
2026-04-26 21:40 42.92600 -87.97264 1789 ft 211 kts 76°
2026-04-26 21:40 42.93050 -87.95343 1410 ft 217 kts 74°
2026-04-26 21:40 42.93507 -87.93417 1065 ft 203 kts 74°
2026-04-26 21:40 42.93928 -87.91688 776 ft 180 kts 72°
2026-04-26 21:41 42.94277 -87.90265 854 ft 140 kts 73°
2026-04-26 21:41 42.94658 -87.88869 1206 ft 172 kts 69°
2026-04-26 21:41 42.95226 -87.87575 2414 ft 158 kts 56°
2026-04-26 21:41 42.96085 -87.86423 2781 ft 195 kts 39°
2026-04-26 21:42 42.97411 -87.85452 2826 ft 237 kts 24°
2026-04-26 21:42 42.99089 -87.85043 2775 ft 249 kts 353°
2026-04-26 21:42 43.00609 -87.86025 2773 ft 243 kts 313°
2026-04-26 21:42 43.01324 -87.88012 2775 ft 226 kts 271°
2026-04-26 21:43 43.01137 -87.90041 2815 ft 206 kts 246°
2026-04-26 21:43 43.00663 -87.91870 2930 ft 200 kts 245°
2026-04-26 21:43 43.00204 -87.93626 2929 ft 194 kts 245°
2026-04-26 21:43 42.99747 -87.95375 2949 ft 195 kts 246°
2026-04-26 21:44 42.99291 -87.97120 2952 ft 196 kts 245°
2026-04-26 21:44 42.98826 -87.98882 2951 ft 197 kts 245°
2026-04-26 21:44 42.98367 -88.00635 2952 ft 196 kts 246°
2026-04-26 21:44 42.97905 -88.02397 2951 ft 197 kts 246°
2026-04-26 21:45 42.97447 -88.04138 2991 ft 195 kts 246°
2026-04-26 21:45 42.96990 -88.05882 3004 ft 194 kts 245°
2026-04-26 21:45 42.96536 -88.07622 2952 ft 194 kts 246°
2026-04-26 21:45 42.96076 -88.09368 2950 ft 194 kts 245°
2026-04-26 21:46 42.95616 -88.11109 2946 ft 194 kts 246°
2026-04-26 21:46 42.95157 -88.12840 2945 ft 194 kts 245°
2026-04-26 21:46 42.94701 -88.14562 2952 ft 195 kts 245°
2026-04-26 21:46 42.94240 -88.16305 2951 ft 195 kts 246°
2026-04-26 21:47 42.93779 -88.18040 2944 ft 195 kts 246°
2026-04-26 21:47 42.93315 -88.19769 2937 ft 195 kts 246°
2026-04-26 21:47 42.92687 -88.21375 2921 ft 188 kts 216°
2026-04-26 21:47 42.91539 -88.21964 2956 ft 177 kts 172°
2026-04-26 21:48 42.90419 -88.21353 2972 ft 173 kts 146°
2026-04-26 21:48 42.89414 -88.20454 2948 ft 172 kts 145°
2026-04-26 21:48 42.88409 -88.19545 2935 ft 172 kts 145°
2026-04-26 21:48 42.87426 -88.18658 2933 ft 171 kts 145°
2026-04-26 21:49 42.86418 -88.17749 2934 ft 172 kts 145°
2026-04-26 21:49 42.85425 -88.16849 2938 ft 172 kts 145°
2026-04-26 21:49 42.84490 -88.15865 2924 ft 171 kts 125°
2026-04-26 21:49 42.84252 -88.14368 2917 ft 162 kts 79°
2026-04-26 21:50 42.84882 -88.13113 2938 ft 164 kts 47°
2026-04-26 21:50 42.85774 -88.12092 2870 ft 167 kts 45°
2026-04-26 21:50 42.86680 -88.11079 2800 ft 167 kts 45°
2026-04-26 21:50 42.87589 -88.10062 2728 ft 166 kts 45°
2026-04-26 21:51 42.88471 -88.09053 2651 ft 164 kts 54°
2026-04-26 21:51 42.89058 -88.07768 2647 ft 158 kts 64°
2026-04-26 21:51 42.89635 -88.06561 2831 ft 142 kts 64°
2026-04-26 21:51 42.90143 -88.05436 2993 ft 140 kts 65°
2026-04-26 21:52 42.90621 -88.04232 3168 ft 146 kts 71°
2026-04-26 21:52 42.91049 -88.02994 3288 ft 143 kts 73°
2026-04-26 21:52 42.91437 -88.01758 3069 ft 144 kts 75°
2026-04-26 21:52 42.91777 -88.00481 2732 ft 143 kts 76°
2026-04-26 21:53 42.92093 -87.99230 2460 ft 138 kts 77°
2026-04-26 21:53 42.92396 -87.97992 2310 ft 138 kts 76°
2026-04-26 21:53 42.92698 -87.96693 1920 ft 145 kts 77°
2026-04-26 21:53 42.93013 -87.95403 1523 ft 143 kts 74°
2026-04-26 21:54 42.93324 -87.94143 1178 ft 135 kts 75°
2026-04-26 21:54 42.93606 -87.92982 995 ft 124 kts 75°
2026-04-26 21:54 42.93881 -87.91886 784 ft 122 kts 74°
2026-04-26 21:54 42.94125 -87.90876 697 ft 88 kts 70°
2026-04-26 21:55 42.94272 -87.90280 683 ft 43 kts 66°
2026-04-26 21:55 42.94392 -87.90205 682 ft 0 kts 21°
2026-04-26 21:55 42.94405 -87.90189 681 ft 6 kts 53°
2026-04-26 21:55 42.94431 -87.90101 679 ft 14 kts 71°
2026-04-26 21:56 42.94485 -87.89972 679 ft 17 kts 12°
2026-04-26 21:56 42.94587 -87.89997 677 ft 15 kts 343°
2026-04-26 21:56 42.94657 -87.89985 676 ft 3 kts 60°
2026-04-26 21:56 42.94670 -87.89951 675 ft 0 kts 65°
2026-04-26 21:57 42.94670 -87.89950 676 ft 0 kts 65°